User: anonymous   Login
Location: Buttermere
(51.3333°N, 1.5167°W)
Time: 14:55:04
(UTC+00:00)
Language:

Cosmos 2180 Rocket - Orbit

View from above orbital plane
View from above orbital plane
View from above satellite
View from above satellite

Ground track
Ground track

The orbit data is extracted from the following two-line orbital elements,

1 21876U 92008B   20334.34724414  .00000066  00000-0  52146-4 0  9998
2 21876  82.9275 259.8452 0035994 112.4599   3.4395 13.75669012444775
Epoch (UTC): 29 November 2020 08:20:01
Eccentricity: 0.0035994
inclination: 82.9275°
perigee height: 953 km
apogee height: 1006 km
right ascension of ascending node: 259.8452°
argument of perigee: 112.4599°
revolutions per day: 13.75669012
mean anomaly at epoch: 3.4395°
orbit number at epoch: 44477

The dashed part of the orbit path shows where the satellite is in the earth's shadow,  

DLR